View from above orbital plane
|
View from above satellite
|
Ground track
|
The orbit data is extracted from the following two-line orbital elements,
1 25567U 98072A 21016.73710213 .00000053 00000-0 41991-4 0 9991
2 25567 82.9481 104.2022 0025711 192.7500 278.9971 13.71861031106528
Epoch (UTC): | 16 January 2021 17:41:25 |
Eccentricity: | 0.0025711 |
inclination: | 82.9481° |
perigee height: | 974 km |
apogee height: | 1012 km |
right ascension of ascending node: | 104.2022° |
argument of perigee: | 192.7500° |
revolutions per day: | 13.71861031 |
mean anomaly at epoch: | 278.9971° |
orbit number at epoch: | 10652 |
The dashed part of the orbit path shows where the satellite is in the earth's shadow,
|
|